THORAD DELTA 1 DEB

Satellite information

Favourite Embed

Satellite Type and Status

DEBRISIN ORBIT

Key statistics

Satellite THORAD DELTA 1 DEB at a glance.

Uptime

18657

Days in orbit

Revolutions

≈ 13.5

Per day

Orbit

SSO

Sun Synchronous Orbit

Inclination

103.3

Latest

Satellite identification and parameters

Extended collection of information and parameters for THORAD DELTA 1 DEB.

Object identification

Identified? True

Debris? True

Object name: THORAD DELTA 1 DEB

International designator: 1974-089ED

Object number (NORAD): 9986

Object ID (CCSDS): 9986

Country: UNITED STATES OF AMERICA (US)

Current information (Y/N): Y

RCS size: SMALL

Orbital parameters

Period: 106.797 minutes

Inclination: 103.2527 deg

SMA: 7456.443 km

Apoapsis: 1356.901 km

Periapsis: 799.716 km

RAAN: 216.1524 deg

Eccentricy: 0.03736264

Argument of periapsis: 165.3705 deg

Mean anomaly: 195.8585 deg

Mean motion: 13.48357915 rev/day

Mean motion (dot): 0.00002684 rev/day2

B* drag term: 0.0028894424 1/REarth

Two-line elements (TLE)

Creation date: Dec. 14, 2025, 3:07 a.m.

Reference frame: TEME

Reference center: EARTH

Epoch: Dec. 13, 2025, 2:07 p.m. UTC

TLE line 0: 0 THORAD DELTA 1 DEB

TLE line 1: 1 09986U 74089ED 25347.58872678 .00002684 00000-0 28894-2 0 9995

TLE line 2: 2 09986 103.2527 216.1524 0373626 165.3705 195.8585 13.48357915406679

Live tracking on map

Real-time ground track for satellite THORAD DELTA 1 DEB.

In-orbit conjunctions

A list of the most updated potential collisions computed for object THORAD DELTA 1 DEB.

Target Orbit TCA Probability of collision Miss distance Type
CZ-6A DEB LEO 2025-01-23 20:42:55 0.000126592 363.0 (m) DEBRIS

Associated space launch

Meteorological satellite using radiometric imaging

THORAD DELTA 1 DEB was lifted into orbit during the mission ‘Delta 2310 | NOAA 4’, on board a Delta 2310 space rocket.

The launch took place on Nov. 15, 1974, 5:11 p.m. from Space Launch Complex 2W.

For more information about the launch, click the button.

Launch to space Delta 2310 | NOAA 4
Delta 2310 | NOAA 4

Agency: N/A

Status: Launch Successful

Launch date: Nov. 15, 1974, 5:11 p.m. UTC

Rocket: Delta 2310

Launch pad: Space Launch Complex 2W

Location: Vandenberg SFB, CA, USA

...

Latest news about this satellite

There are no fresh news available about this satellite. Check back as we update our databases every day.


Newsletter sign-up

Weekly statistics, charts and insights to help you stay on top of the space industry.